Location: Maccacari
(45.1333°N, 11.1333°E)
Time: 18:56:20
(UTC+00:00)

USA 234 - Pass Details

Date: 19 January 2021
Orbit: 1100 x 1107 km, 123.0° (Epoch: 01 March)

Event Time Altitude Azimuth Distance (km) Brightness Sun altitude
Exits shadow 21:12:08 12° 296° (WNW) 2,800 5.8 -52.7°
Drops below altitude 10° 21:12:36 10° 298° (WNW) 2,963 5.9 -52.8°
Sets 21:15:18 0° 306° (NW) 3,925 6.7 -53.2°
